Weather History for KMCC - February, 2014

Change the Weather History Date:

Saturday, February 8, 2014

  Actual Average (KMHR) Record (KMHR)
Temperature  
Mean Temperature 52 °F -  
Max Temperature 55 °F 55 °F 69 °F (2006)
Min Temperature 50 °F 37 °F 28 °F (2003)
Degree Days  
Heating Degree Days 12    
Growing Degree Days 2 (Base 50)    
Moisture  
Dew Point 51 °F    
Average Humidity 93    
Maximum Humidity 100    
Minimum Humidity 88    
Precipitation  
Precipitation 0.00 in - - ()
Sea Level Pressure  
Sea Level Pressure 30.13 in    
Wind  
Wind Speed 20 mph (SSE)    
Max Wind Speed 26 mph    
Max Gust Speed 38 mph    
Visibility 3 miles    
Events Rain    
Averages and records for this station are not official NWS values.
T = Trace of Precipitation, MM = Missing Value Source: NWS Daily Summary

Daily Weather History Graph

Daily Weather History Graph

Search for Another Location

Airport or City:

Trip Planner

Search our weather history database for the weather conditions in past years. The results will help you decide how hot, cold, wet, or windy it might be!

Date:

Astronomy

Feb. 08, 2014 Rise Set
Actual Time 7:04 AM PST 5:35 PM PST
Civil Twilight 6:36 AM PST 6:03 PM PST
Nautical Twilight 6:05 AM PST 6:34 PM PST
Astronomical Twilight 5:34 AM PST 7:05 PM PST
Moon 12:34 PM PST (2/8) 2:20 AM PST (2/8)
Length of Visible Light 11h 26m
Length of Day
10h 31m
Waxing Gibbous, 69% of the Moon is Illuminated
Feb 8
Waxing Gibbous
Feb 14
Full
Feb 22
Last Quarter
Mar 1
New
Mar 8
First Quarter

Hourly Weather History & Observations

Time (PST) Temp. Dew Point Humidity Pressure Visibility Wind Dir Wind Speed Gust Speed Precip Events Conditions
12:15 AM 50.0 °F 48.2 °F 94% 30.13 in 2.0 mi SE 23.0 mph 32.2 mph N/A   Overcast
12:35 AM 50.0 °F 48.2 °F 94% 30.14 in 2.5 mi SE 20.7 mph 29.9 mph N/A   Overcast
12:55 AM 50.0 °F 48.2 °F 94% 30.13 in 1.8 mi SE 23.0 mph 28.8 mph N/A Rain Light Rain
1:15 AM 50.0 °F 48.2 °F 94% 30.14 in 2.0 mi SE 17.3 mph 28.8 mph N/A Rain Light Rain
1:35 AM 50.0 °F 48.2 °F 94% 30.14 in 1.8 mi SE 16.1 mph 24.2 mph N/A Rain Light Rain
1:55 AM 50.0 °F 48.2 °F 94% 30.13 in 1.8 mi SE 19.6 mph 25.3 mph N/A   Overcast
2:15 AM 50.0 °F 48.2 °F 94% 30.13 in 3.0 mi SE 16.1 mph 26.5 mph N/A   Overcast
2:35 AM 50.0 °F 48.2 °F 94% 30.13 in 5.0 mi SE 19.6 mph 24.2 mph N/A   Overcast
2:55 AM 50.0 °F 48.2 °F 94% 30.12 in 3.0 mi SE 17.3 mph 26.5 mph N/A Rain Light Rain
3:15 AM 50.0 °F 48.2 °F 94% 30.12 in 2.5 mi SE 15.0 mph - N/A Rain Light Rain
3:35 AM 50.0 °F 48.2 °F 94% 30.11 in 1.8 mi SSE 17.3 mph 27.6 mph N/A Rain Light Rain
3:55 AM 50.0 °F 48.2 °F 94% 30.11 in 2.0 mi SSE 17.3 mph 26.5 mph N/A Rain Light Rain
4:15 AM 50.0 °F 48.2 °F 94% 30.12 in 2.5 mi SSE 17.3 mph 24.2 mph N/A Rain Light Rain
4:35 AM 51.8 °F 48.2 °F 88% 30.11 in 3.0 mi SSE 16.1 mph - N/A Rain Light Rain
4:55 AM 50.0 °F 48.2 °F 94% 30.11 in 4.0 mi SSE 17.3 mph 26.5 mph N/A   Overcast
5:15 AM 50.0 °F 48.2 °F 94% 30.11 in 5.0 mi SE 17.3 mph 24.2 mph N/A Rain Light Rain
5:35 AM 51.8 °F 48.2 °F 88% 30.11 in 5.0 mi SSE 16.1 mph 29.9 mph N/A Rain Light Rain
5:55 AM 51.8 °F 48.2 °F 88% 30.11 in 10.0 mi SSE 16.1 mph 24.2 mph N/A   Overcast
6:15 AM 51.8 °F 48.2 °F 88% 30.11 in 10.0 mi SE 20.7 mph 27.6 mph N/A Rain Light Rain
6:35 AM 50.0 °F 48.2 °F 94% 30.11 in 5.0 mi SSE 18.4 mph 28.8 mph N/A Rain Light Rain
6:55 AM 50.0 °F 48.2 °F 94% 30.11 in 8.0 mi SSE 20.7 mph 27.6 mph N/A   Overcast
7:15 AM 50.0 °F 48.2 °F 94% 30.11 in 5.0 mi SE 20.7 mph 27.6 mph N/A Rain Light Rain
7:35 AM 51.8 °F 48.2 °F 88% 30.10 in 3.0 mi SE 21.9 mph 28.8 mph N/A Rain Light Rain
7:55 AM 51.8 °F 48.2 °F 88% 30.10 in 6.0 mi SE 19.6 mph 27.6 mph N/A   Overcast
8:15 AM 51.8 °F 48.2 °F 88% 30.10 in 7.0 mi SE 19.6 mph 27.6 mph N/A   Overcast
8:35 AM 51.8 °F 48.2 °F 88% 30.09 in 6.0 mi SE 23.0 mph 31.1 mph N/A   Overcast
8:55 AM 51.8 °F 48.2 °F 88% 30.09 in 3.0 mi SE 24.2 mph 33.4 mph N/A Rain Light Rain
9:15 AM 51.8 °F 48.2 °F 88% 30.09 in 3.0 mi SE 21.9 mph 31.1 mph N/A Rain Light Rain
9:35 AM 51.8 °F 50.0 °F 94% 30.08 in 4.0 mi SE 19.6 mph 32.2 mph N/A Rain Light Rain
9:55 AM 53.6 °F 50.0 °F 88% 30.09 in 7.0 mi SE 19.6 mph 29.9 mph N/A   Overcast
10:15 AM 53.6 °F 50.0 °F 88% 30.10 in 3.0 mi SSE 23.0 mph 29.9 mph N/A Rain Light Rain
10:35 AM 53.6 °F 50.0 °F 88% 30.13 in 1.5 mi SSE 18.4 mph 25.3 mph N/A Rain Light Rain
10:55 AM 53.6 °F 50.0 °F 88% 30.15 in 0.8 mi South 17.3 mph 25.3 mph N/A Rain Light Rain
11:15 AM 53.6 °F 50.0 °F 88% 30.15 in 1.5 mi SSE 19.6 mph 26.5 mph N/A Rain Light Rain
11:35 AM 53.6 °F 50.0 °F 88% 30.14 in 3.0 mi SSE 20.7 mph 27.6 mph N/A Rain Light Rain
11:55 AM 53.6 °F 50.0 °F 88% 30.14 in 4.0 mi SSE 21.9 mph 29.9 mph N/A   Overcast
12:15 PM 53.6 °F 50.0 °F 88% 30.14 in 3.0 mi SSE 20.7 mph 33.4 mph N/A Rain Light Rain
12:35 PM 53.6 °F 50.0 °F 88% 30.14 in 1.5 mi SSE 23.0 mph 32.2 mph N/A Rain Light Rain
12:55 PM 53.6 °F 50.0 °F 88% 30.13 in 1.5 mi SSE 25.3 mph 34.5 mph N/A Rain Light Rain
1:15 PM 53.6 °F 51.8 °F 94% 30.13 in 1.5 mi SSE 21.9 mph 33.4 mph N/A Rain Light Rain
1:35 PM 53.6 °F 51.8 °F 94% 30.12 in 2.5 mi SSE 21.9 mph 33.4 mph N/A   Overcast
1:55 PM 53.6 °F 51.8 °F 94% 30.12 in 1.8 mi SSE 24.2 mph 32.2 mph N/A Rain Light Rain
2:15 PM 53.6 °F 51.8 °F 94% 30.12 in 1.0 mi SSE 25.3 mph 34.5 mph N/A Rain Light Rain
2:35 PM 53.6 °F 51.8 °F 94% 30.12 in 1.0 mi SE 26.5 mph 38.0 mph N/A Rain Light Rain
2:55 PM 53.6 °F 51.8 °F 94% 30.12 in 2.5 mi SSE 25.3 mph 33.4 mph N/A Rain Light Rain
3:15 PM 53.6 °F 51.8 °F 94% 30.12 in 2.5 mi SSE 23.0 mph 31.1 mph N/A Rain Light Rain
3:35 PM 53.6 °F 53.6 °F 100% 30.11 in 3.0 mi SSE 24.2 mph 33.4 mph N/A   Overcast
3:55 PM 53.6 °F 53.6 °F 100% 30.11 in 2.5 mi SSE 23.0 mph 33.4 mph N/A   Overcast
4:15 PM 53.6 °F 53.6 °F 100% 30.11 in 1.2 mi SSE 26.5 mph 35.7 mph N/A Rain Light Rain
4:35 PM 53.6 °F 53.6 °F 100% 30.10 in 1.5 mi SSE 25.3 mph 34.5 mph N/A   Overcast
4:55 PM 53.6 °F 53.6 °F 100% 30.11 in 2.0 mi SSE 23.0 mph 31.1 mph N/A   Overcast
5:15 PM 55.4 °F 53.6 °F 94% 30.12 in 1.0 mi SSE 21.9 mph 26.5 mph N/A Rain Rain
5:35 PM 55.4 °F 53.6 °F 94% 30.12 in 1.8 mi South 17.3 mph 23.0 mph N/A Rain Light Rain
5:55 PM 55.4 °F 53.6 °F 94% 30.13 in 2.0 mi SSE 16.1 mph 24.2 mph N/A Rain Light Rain
6:15 PM 55.4 °F 53.6 °F 94% 30.12 in 1.2 mi South 16.1 mph 21.9 mph N/A Rain Light Rain
6:35 PM 55.4 °F 53.6 °F 94% 30.12 in 2.5 mi SSE 16.1 mph 21.9 mph N/A Rain Light Rain
6:55 PM 55.4 °F 53.6 °F 94% 30.13 in 1.8 mi SSE 18.4 mph 24.2 mph N/A Rain Light Rain
7:15 PM 55.4 °F 53.6 °F 94% 30.13 in 1.2 mi SSE 20.7 mph 26.5 mph N/A Rain Light Rain
7:35 PM 55.4 °F 53.6 °F 94% 30.14 in 1.5 mi SSE 16.1 mph 24.2 mph N/A Rain Light Rain
7:55 PM 55.4 °F 53.6 °F 94% 30.14 in 1.2 mi SSE 21.9 mph 25.3 mph N/A Rain Light Rain
8:15 PM 55.4 °F 53.6 °F 94% 30.15 in 1.5 mi SSE 20.7 mph 27.6 mph N/A Rain Light Rain
8:35 PM 55.4 °F 53.6 °F 94% 30.15 in 1.8 mi SSE 18.4 mph 24.2 mph N/A Rain Rain
8:55 PM 55.4 °F 53.6 °F 94% 30.15 in 2.5 mi SSE 18.4 mph - N/A Rain Light Rain
9:15 PM 55.4 °F 53.6 °F 94% 30.15 in 3.0 mi SSE 18.4 mph 23.0 mph N/A Rain Light Rain
9:35 PM 55.4 °F 53.6 °F 94% 30.16 in 1.5 mi SSE 15.0 mph 24.2 mph N/A Rain Light Rain
9:55 PM 55.4 °F 53.6 °F 94% 30.16 in 1.2 mi SSE 15.0 mph - N/A Rain Light Rain
10:15 PM 55.4 °F 53.6 °F 94% 30.16 in 2.0 mi SSE 12.7 mph - N/A Rain Light Rain
10:35 PM 55.4 °F 53.6 °F 94% 30.16 in 2.0 mi SSE 15.0 mph 19.6 mph N/A Rain Light Rain
10:55 PM 55.4 °F 53.6 °F 94% 30.16 in 1.2 mi SSE 15.0 mph - N/A Rain Light Rain
11:15 PM 55.4 °F 53.6 °F 94% 30.17 in 2.5 mi SSE 15.0 mph - N/A Rain Light Rain
11:35 PM 55.4 °F 53.6 °F 94% 30.17 in 2.0 mi SSE 13.8 mph 18.4 mph N/A   Overcast
11:55 PM 55.4 °F 53.6 °F 94% 30.16 in 2.0 mi SSE 15.0 mph 18.4 mph N/A Rain Light Rain